(247604) = 2002 TX237

Discovered at Socorro on 2002-10-07 by LINEAR.

Orbit

Orbit type: Main Belt

Note: WebGL enabled browser required.

epoch2024-03-31.0
epoch JD2460400.5
perihelion date2023-01-26.41448
perihelion JD2459970.91448
argument of perihelion (°)81.77689
ascending node (°)240.47445
inclination (°)15.90525
eccentricity0.2613703
perihelion distance (AU)1.8989383
Tisserand w.r.t. Jupiter3.3
ΔV w.r.t. Earth (km/sec)9.9
semimajor axis (AU)2.5708936
mean anomaly (°)102.71345
mean daily motion (°/day)0.23909900
aphelion distance (AU)3.243
period (years)4.12
P-vector [x]0.75773420
P-vector [y]-0.65243861
P-vector [z]0.01275730
Q-vector [x]0.60743432
Q-vector [y]0.71234089
Q-vector [z]0.35155939
absolute magnitude15.74
phase slope0.15
uncertainty0
referenceMPEC 2024-D105
observations used509
oppositions12
arc length (days)9246
first opposition used1998
last opposition used2024
residual rms (arc-secs)0.62
perturbers coarse indicatorM-v
perturbers precise indicator003Ek
first observation date used1998-10-29.0
last observation date used2024-02-21.0
computer nameMPCLINUX
JD of orbit computation2456966.812474
perihelion JD uncertainty (days)2.2455E-04
argument of perihelion uncertainty (°)9.6906E-05
ascending node uncertainty (°)3.8865E-05
inclination uncertainty (°)8.6360E-06
eccentricity uncertainty 2.2184E-07
perihelion distance uncertainty (AU)6.0274E-07
Minimum Orbit Intersection Distances (in AU)
for orbit epoch: 2460400.5, reference: E2024-DA5
Mercury1.51671
Venus1.23117
Earth0.96215
Mars0.66032
Jupiter2.29249
Saturn6.07525
Uranus15.3918
Neptune27.0993

Observations

518 total observations over interval: 1998 10 29.30999 – 2024 02 21.304564
These data are available for download (format description).

Date (UT) J2000 RA J2000 Dec Magn Location Ref
1998 10 29.30999 01 30 44.29 +24 25 56.2 18.2 R 699 – Lowell Observatory-LONEOS MPS 71619
1998 10 29.31993 01 30 43.83 +24 25 47.1   699 – Lowell Observatory-LONEOS MPS 71619
1998 10 29.32987 01 30 43.30 +24 25 37.7   699 – Lowell Observatory-LONEOS MPS 71619
1998 11 14.07375 01 21 58.63 +20 32 09.9 19.1   704 – Lincoln Laboratory ETS, New Mexico MPS 71619
1998 11 14.09649 01 21 57.98 +20 31 52.0 18.7   704 – Lincoln Laboratory ETS, New Mexico MPS 71619
1998 11 14.11839 01 21 57.57 +20 31 33.1 19.1   704 – Lincoln Laboratory ETS, New Mexico MPS 71619
1998 11 14.14024 01 21 56.99 +20 31 15.3 18.8   704 – Lincoln Laboratory ETS, New Mexico MPS 71619
1998 11 14.16213 01 21 56.33 +20 30 54.1 18.7   704 – Lincoln Laboratory ETS, New Mexico MPS 71619
2002 08 01.31667 00 05 00.58 +26 45 40.1 19.1   704 – Lincoln Laboratory ETS, New Mexico MPS 81502
2002 08 01.33153 00 05 00.93 +26 45 49.3 19.8   704 – Lincoln Laboratory ETS, New Mexico MPS 81502
2002 08 01.34639 00 05 01.34 +26 45 58.7 19.2   704 – Lincoln Laboratory ETS, New Mexico MPS 81502
2002 08 01.37613 00 05 02.15 +26 46 18.2 19.7   704 – Lincoln Laboratory ETS, New Mexico MPS 81502
2002 08 23.28495 00 08 00.86 +29 23 44.9 18.7   644 – Palomar Mountain/NEAT MPS 81502
2002 08 23.30659 00 08 00.54 +29 23 49.5 18.6   644 – Palomar Mountain/NEAT MPS 81502
2002 08 23.33756 00 08 00.08 +29 23 55.4 18.3   644 – Palomar Mountain/NEAT MPS 81502
2002 08 30.35941 00 05 49.37 +29 35 38.1 18.7   704 – Lincoln Laboratory ETS, New Mexico MPS 81502
2002 08 30.37334 00 05 49.00 +29 35 37.9 18.8   704 – Lincoln Laboratory ETS, New Mexico MPS 81502
2002 08 30.38725 00 05 48.60 +29 35 38.1 18.8   704 – Lincoln Laboratory ETS, New Mexico MPS 81502
2002 08 30.40156 00 05 48.19 +29 35 37.2 19.1   704 – Lincoln Laboratory ETS, New Mexico MPS 81502
2002 09 28.31563 23 47 41.65 +26 22 08.1 17.2   644 – Palomar Mountain/NEAT MPS 66188
2002 09 28.33903 23 47 40.66 +26 21 49.8 17.7   644 – Palomar Mountain/NEAT MPS 66188
2002 09 28.36893 23 47 39.40 +26 21 26.9 17.7   644 – Palomar Mountain/NEAT MPS 66188
2002 10 07.24749 23 42 29.69 +24 16 38.3 18.0   704 – Lincoln Laboratory ETS, New Mexico MPS 64202
2002 10 07.26216 23 42 29.19 +24 16 24.8 18.3   704 – Lincoln Laboratory ETS, New Mexico MPS 64202
2002 10 07.27692 23 42 28.75 +24 16 11.4 18.9   704 – Lincoln Laboratory ETS, New Mexico MPS 64202
2002 10 10.24498 23 41 07.01 +23 30 46.6 18.2   704 – Lincoln Laboratory ETS, New Mexico MPS 64202
2002 10 10.26088 23 41 06.56 +23 30 32.2 18.7   704 – Lincoln Laboratory ETS, New Mexico MPS 64202
2002 10 10.27685 23 41 06.04 +23 30 17.9 18.9   704 – Lincoln Laboratory ETS, New Mexico MPS 64202
2002 10 10.29262 23 41 05.66 +23 30 02.3 19.0   704 – Lincoln Laboratory ETS, New Mexico MPS 64202
2002 10 10.30839 23 41 05.19 +23 29 47.7 19.1   704 – Lincoln Laboratory ETS, New Mexico MPS 64202
2002 10 15.16864 23 39 21.81 +22 13 26.8 17.7   644 – Palomar Mountain/NEAT MPS 66188
2002 10 15.18952 23 39 21.40 +22 13 07.0 18.5   644 – Palomar Mountain/NEAT MPS 66188
2002 10 15.21051 23 39 20.98 +22 12 47.3 18.3   644 – Palomar Mountain/NEAT MPS 66188
2002 10 15.26923 23 39 19.73 +22 11 50.5 18.1   704 – Lincoln Laboratory ETS, New Mexico MPS 66188
2002 10 15.28569 23 39 19.37 +22 11 34.5 18.0   704 – Lincoln Laboratory ETS, New Mexico MPS 66188
2002 10 15.30207 23 39 19.06 +22 11 19.2 18.7   704 – Lincoln Laboratory ETS, New Mexico MPS 66188
2002 12 01.14980 23 57 37.17 +12 43 16.5 20.1   704 – Lincoln Laboratory ETS, New Mexico MPS 68093
2002 12 01.16482 23 57 38.06 +12 43 11.3 19.6   704 – Lincoln Laboratory ETS, New Mexico MPS 68093
2002 12 01.17966 23 57 38.90 +12 43 05.4 19.5   704 – Lincoln Laboratory ETS, New Mexico MPS 68093
2002 12 01.19433 23 57 39.67 +12 43 00.0 19.5   704 – Lincoln Laboratory ETS, New Mexico MPS 68093
2006 05 07.45491 21 06 33.29 -02 40 10.3 20.0 V 691 – Steward Observatory, Kitt Peak-Spacewatch MPS 171597
2006 05 07.46989 21 06 34.59 -02 39 55.0 19.8 V 691 – Steward Observatory, Kitt Peak-Spacewatch MPS 171597
2006 05 07.48488 21 06 35.89 -02 39 39.7 20.0 V 691 – Steward Observatory, Kitt Peak-Spacewatch MPS 171597
2006 05 08.46390 21 08 02.29 -02 22 55.4   291 – LPL/Spacewatch II MPS 171376
2006 05 08.46934 21 08 02.74 -02 22 49.9   291 – LPL/Spacewatch II MPS 171376
2006 05 08.47476 21 08 03.23 -02 22 44.2   291 – LPL/Spacewatch II MPS 171376
2006 05 09.42987 21 09 26.82 -02 06 20.6 20.0 V G96 – Mt. Lemmon Survey MPS 171376
2006 05 09.43476 21 09 27.21 -02 06 15.4 19.7 V G96 – Mt. Lemmon Survey MPS 171376
2006 05 09.43962 21 09 27.61 -02 06 10.5 19.6 V G96 – Mt. Lemmon Survey MPS 171376
2006 05 09.44437 21 09 28.04 -02 06 05.6 19.6 V G96 – Mt. Lemmon Survey MPS 171376
2006 05 25.40249 21 30 41.72 +02 36 47.6 19.4 V 703 – Catalina Sky Survey MPS 171983
2006 05 25.41060 21 30 42.26 +02 36 56.0 19.3 V 703 – Catalina Sky Survey MPS 171983
2006 05 25.41872 21 30 42.80 +02 37 04.6 19.3 V 703 – Catalina Sky Survey MPS 171983
2006 05 25.42687 21 30 43.48 +02 37 12.9 19.7 V 703 – Catalina Sky Survey MPS 171983
2006 06 01.34310 21 38 34.63 +04 43 17.1 18.9 R 699 – Lowell Observatory-LONEOS MPS 172803
2006 06 01.36320 21 38 36.00 +04 43 39.4   699 – Lowell Observatory-LONEOS MPS 172803
2006 06 01.38330 21 38 37.22 +04 44 01.5   699 – Lowell Observatory-LONEOS MPS 172803
2006 06 01.40341 21 38 38.46 +04 44 24.0   699 – Lowell Observatory-LONEOS MPS 172803
2006 06 21.38205 21 55 42.99 +10 46 34.6 18.9 V 703 – Catalina Sky Survey MPS 173880
2006 06 21.40021 21 55 43.60 +10 46 54.3 18.6 V 703 – Catalina Sky Survey MPS 173880
2006 06 21.40884 21 55 43.86 +10 47 03.4 19.3 V 703 – Catalina Sky Survey MPS 173880
2006 07 24.32406 22 00 44.66 +18 53 39.9 18.4   704 – Lincoln Laboratory ETS, New Mexico MPS 175104
2006 07 24.33449 22 00 44.41 +18 53 47.9 18.6   704 – Lincoln Laboratory ETS, New Mexico MPS 175104
2006 07 24.34545 22 00 44.16 +18 53 53.5 18.6   704 – Lincoln Laboratory ETS, New Mexico MPS 175104
2006 07 24.36744 22 00 43.69 +18 54 06.7 19.3   704 – Lincoln Laboratory ETS, New Mexico MPS 175104
2006 08 06.21105 21 54 29.80 +20 32 04.5 17.9 R 699 – Lowell Observatory-LONEOS MPS 175526
2006 08 06.23284 21 54 28.90 +20 32 11.2   699 – Lowell Observatory-LONEOS MPS 175526
2006 08 06.25467 21 54 28.03 +20 32 16.9   699 – Lowell Observatory-LONEOS MPS 175526
2006 08 06.27656 21 54 27.14 +20 32 23.3   699 – Lowell Observatory-LONEOS MPS 175526
2006 08 24.25219 21 41 50.86 +20 37 28.2 17.5   704 – Lincoln Laboratory ETS, New Mexico MPS 176006
2006 08 24.26328 21 41 50.31 +20 37 26.6 17.8   704 – Lincoln Laboratory ETS, New Mexico MPS 176006
2006 08 24.27499 21 41 49.78 +20 37 24.0 17.7   704 – Lincoln Laboratory ETS, New Mexico MPS 176006
2006 08 24.28600 21 41 49.28 +20 37 20.7 17.9   704 – Lincoln Laboratory ETS, New Mexico MPS 176006
2006 08 24.29708 21 41 48.78 +20 37 19.0 18.4   704 – Lincoln Laboratory ETS, New Mexico MPS 176006
2006 09 01.89036 21 36 13.11 +19 45 16.0 17.8 R 106 – Crni Vrh MPS 176962
2006 09 01.89526 21 36 13.01 +19 45 13.2 17.5 R 106 – Crni Vrh MPS 176962
2006 09 01.90016 21 36 12.81 +19 45 10.7 17.7 R 106 – Crni Vrh MPS 176962
2006 09 01.90506 21 36 12.61 +19 45 08.5 17.3 R 106 – Crni Vrh MPS 176962
2006 09 20.19389 21 30 00.36 +16 34 14.6 18.1 V 703 – Catalina Sky Survey MPS 179237
2006 09 20.19875 21 30 00.28 +16 34 11.2 18.0 V 703 – Catalina Sky Survey MPS 179237
2006 09 20.20361 21 30 00.25 +16 34 07.5 18.2 V 703 – Catalina Sky Survey MPS 179237
2006 09 20.20847 21 30 00.25 +16 34 04.0 18.1 V 703 – Catalina Sky Survey MPS 179237
2006 09 29.18777 21 30 51.34 +14 41 43.9 18.8   704 – Lincoln Laboratory ETS, New Mexico MPS 182557
2006 09 29.20024 21 30 51.50 +14 41 34.4 18.7   704 – Lincoln Laboratory ETS, New Mexico MPS 182557
2006 09 29.21266 21 30 51.65 +14 41 25.1 18.8   704 – Lincoln Laboratory ETS, New Mexico MPS 182557
2006 10 22.09955 21 44 59.64 +10 19 38.8 18.8 V 703 – Catalina Sky Survey MPS 183996
2006 10 22.10498 21 44 59.96 +10 19 35.2 18.8 V 703 – Catalina Sky Survey MPS 183996
2006 10 22.11045 21 45 00.28 +10 19 32.1 18.6 V 703 – Catalina Sky Survey MPS 183996
2006 10 22.11590 21 45 00.54 +10 19 28.9 18.6 V 703 – Catalina Sky Survey MPS 183996
